Regional Weather Roundup
Issued by NWS

Home | Current Version | Previous Version | Graphics & Text | Print | Product List | Glossary On
Versions: 1 2 3 4 5 6 7 8 9 10 11 12 13 14 15 16 17 18 19 20 21 22 23 24 25 26 27 28 29 30 31 32 33 34 35 36 37 38 39 40 41 42 43 44 45 46 47 48 49 50
000
ASUS43 KIND 291159
RWRIN

WEATHER ROUNDUP FOR INDIANA
NATIONAL WEATHER SERVICE INDIANAPOLIS IN
800 AM EDT FRI JUL 29 2016

NOTE: "FAIR" INDICATES FEW OR NO CLOUDS BELOW 12,000 FEET WITH NO
SIGNIFICANT WEATHER AND/OR OBSTRUCTIONS TO VISIBILITY.

* - STATION DOES NOT REPORT WEATHER SUCH AS PRECIPITATION OR FOG.

+ - STATION NOT QUALITY CONTROLLED BY THE NATIONAL WEATHER SERVICE.
    USE DATA WITH CAUTION...ESPECIALLY DEWPOINT AND RELATIVE
    HUMIDITY OBSERVATIONS.

INZ001>003-010>013-019-020-291300-
NORTHWEST INDIANA

CITY           SKY/WX    TMP DP  RH WIND       PRES   REMARKS
GARY /AIRPORT/ MOSUNNY   70  70 100 CALM      29.92R
KNOX *+        CLOUDY    64  63  94 CALM      29.93R VSB 1/4
MONTICELLO +   SUNNY     69  64  85 CALM      29.92R
6HR MIN TEMP:  65; 6HR MAX TEMP:  69;

RENSSELAER +   SUNNY     66  64  94 NE3       29.92F FOG

$$

LMZ046-743>745-291300-
SOUTHERN LAKE MICHIGAN

STATION/POSITION TIME  TEMP    WIND        PRES    WAVE
                       AIR SEA DIR/SP/G            HT
                 (UTC) (F)     (DEG/KT/KT) (MB)    (FT)
BURNS HARBOR     1104   71     110/  5/  7 1013.2S
MICHIGAN CITY    1100   68      90/  2/  3   N/A
5NW MICH CITY    1100   72 77  120/  6/  8   N/A     2

$$

INZ004-005-014>016-021>024-291300-
NORTH CENTRAL INDIANA

CITY           SKY/WX    TMP DP  RH WIND       PRES   REMARKS
ELKHART        SUNNY     68  66  94 E5        29.95R FOG
GOSHEN         PTSUNNY   70  64  81 E3        29.95R
6HR MIN TEMP:  68; 6HR MAX TEMP:  71;

SOUTH BEND     SUNNY     69  68  96 CALM      29.94R
6HR MIN TEMP:  65; 6HR MAX TEMP:  69;


$$

INZ006>009-017-018-025>027-291300-
NORTHEAST INDIANA

CITY           SKY/WX    TMP DP  RH WIND       PRES   REMARKS
ANGOLA *+      MOSUNNY   68  61  77 E6        29.95R
FORT WAYNE     PTSUNNY   70  67  90 E5        29.95R FOG
6HR MIN TEMP:  68; 6HR MAX TEMP:  71;


$$

INZ028-029-035-036-043>045-051>053-291300-
WEST CENTRAL INDIANA

CITY           SKY/WX    TMP DP  RH WIND       PRES   REMARKS
CRAWFORDSVL +  FOG       67  67 100 CALM      29.93R VSB 1/4
6HR MIN TEMP:  63; 6HR MAX TEMP:  67;

LAFAYETTE      MOSUNNY   69  69 100 CALM      29.92R FOG
6HR MIN TEMP:  68; 6HR MAX TEMP:  69;

TERRE HAUTE    CLOUDY    70  68  93 SE5       29.92S FOG
6HR MIN TEMP:  68; 6HR MAX TEMP:  71;


$$

INZ030>032-037>040-046>048-054>057-064-065-291300-
CENTRAL INDIANA

CITY           SKY/WX    TMP DP  RH WIND       PRES   REMARKS
INDIANAPOLIS   MOSUNNY   71  68  90 S5        29.94R
6HR MIN TEMP:  69; 6HR MAX TEMP:  73;

-EAGLE CREEK   SUNNY     72  68  87 CALM      29.93R
6HR MIN TEMP:  70; 6HR MAX TEMP:  74;

KOKOMO *+      CLOUDY    70  63  78 CALM      29.94R
6HR MIN TEMP:  63; 6HR MAX TEMP:  70;

SHELBYVILLE    SUNNY     71  68  90 S3        29.93S
6HR MIN TEMP:  67; 6HR MAX TEMP:  71;


$$

INZ033-034-041-042-049-050-058-059-291300-
EAST CENTRAL INDIANA

CITY           SKY/WX    TMP DP  RH WIND       PRES   REMARKS
MUNCIE         SUNNY     72  67  84 CALM      29.94R
6HR MIN TEMP:  67; 6HR MAX TEMP:  74;


$$

INZ060-061-067>069-081>083-085>088-291300-
SOUTHWEST INDIANA

CITY           SKY/WX    TMP DP  RH WIND       PRES   REMARKS
EVANSVILLE     MOSUNNY   72  71  97 S3        29.94R FOG
6HR MIN TEMP:  70; 6HR MAX TEMP:  72;

HUNTINGBURG *+ CLOUDY    70  66  88 CALM      29.94R
6HR MIN TEMP:  68; 6HR MAX TEMP:  70;


$$

INZ062-063-066-070>080-084-089>092-291300-
SOUTH CENTRAL AND SOUTHEAST INDIANA

CITY           SKY/WX    TMP DP  RH WIND       PRES   REMARKS
BLOOMINGTON    SUNNY     69  67  93 CALM      29.94R
6HR MIN TEMP:  66; 6HR MAX TEMP:  70;

MADISON *+     CLOUDY    70  68  94 CALM      29.97R
SEYMOUR +      FOG       70  70 100 CALM      29.94R VSB<1/4

$$




USA.gov is the U.S. government's official web portal to all federal, state and local government web resources and services.